ATS 5

导读

ATS 5是美国于1969年8月12日发射的应用技术卫星,属于美国ATS系列第一代多用途技术试验卫星,原定进入地球静止轨道,最终任务取得部分成功。卫星采用重力梯度稳定姿态控制方式,主要承担多领域技术试验任务,完成了C波段、L波段及毫米波无线电通信与传播试验,也为后续通信、气象、导航等应用卫星的发展积累了关键技术数据。

Basic Information
目录编号:
4068
目录名称:
ATS 5
国际标识:
1969-069A
轨道中心:
EARTH
卫星名称:
ATS 5
卫星全名:
--
卫星状态:
在轨 (已飞行20790 天)
发射日期:
1969-08-12 UTC
国别 :
美国 (US)
星等 :
--
Orbit Information
数据来源 国际轨道数据 AOE轨道数据
星历时间 2026-07-14T04:55:21+0800
10小时前
查看轨道信息
2026-07-12T08:00:00+0800
2天前
查看轨道信息
半长轴 42386.124km 42386.068km
偏心率 0.0005209 0.0005215
轨道倾角 0.291° 0.289°
近地点辐角 136.269° 136.544°
升交点赤经 139.427° 139.826°
平近点角 36.407° 85.339°
近地点 35985.908km 35985.826km
远地点 36030.066km 36030.036km
周期 1447.422分钟 1447.419分钟
每日圈数 0.994872 0.994874
Detailed Information
使用方式:
暂无
2D Orbit Map
3D Orbit Map
Orbit Altitude Analysis Chart
Orbit Inclination Analysis Chart
Orbit Comprehensive Analysis Chart
View Comprehensive Chart